Wind_Speed
26 26 26 25 24 24 23 23 22 22 20 19 19 19 19 19 18 17 17 17 17 17 17 17 17 16 17 17 17 16 17 17 17 18 19 19 20 21 21 22 22 23 24
26 26 26 25 25 24 24 25 24 23 22 21 21 21 20 21 21 20 19 19 19 19 19 18 18 18 19 19 19 19 19 19 19 20 21 22 22 23 23 24 25 26 26
24 25 26 26 25 25 27 27 26 25 24 23 23 23 23 23 23 22 21 21 21 21 21 21 21 21 21 21 21 22 22 22 23 23 24 24 25 26 26 27 28 28 29
25 26 25 26 26 26 27 28 27 26 26 25 25 26 25 25 24 23 23 23 23 23 24 24 24 23 24 24 24 24 25 25 26 27 27 28 29 29 30 31 31 32 31
25 26 26 27 27 27 29 29 28 28 27 27 27 27 27 25 25 26 25 25 25 25 25 26 27 27 27 27 27 27 28 28 29 30 30 31 32 33 33 34 35 35 36
25 24 24 25 27 28 29 30 30 29 29 30 29 28 28 28 27 27 27 27 27 27 27 28 29 29 30 30 30 30 31 32 32 33 34 35 35 36 36 37 38 38 39
24 24 24 25 27 29 30 29 29 29 29 29 28 28 29 28 28 28 29 29 30 30 30 30 31 32 32 32 32 34 35 35 35 36 36 37 38 38 39 40 41 42 43
26 26 27 27 28 30 32 31 30 29 29 29 29 28 29 30 29 29 31 32 32 33 33 33 34 34 34 34 35 36 37 37 38 38 39 40 41 41 42 43 44 44 45
28 27 27 27 28 29 30 31 31 31 31 31 31 30 30 30 31 31 32 33 35 35 36 36 36 36 36 35 36 37 39 40 40 41 42 43 45 45 45 46 47 47 48
28 28 28 28 28 29 30 31 31 31 32 33 32 32 32 32 33 33 34 35 36 36 37 36 36 37 38 38 38 39 40 42 43 44 46 47 47 48 48 48 49 49 50
29 28 29 30 29 29 31 31 31 32 32 32 32 33 34 35 35 35 35 36 36 37 38 38 38 39 40 40 41 42 43 45 46 47 48 49 49 50 50 50 50 51 51
29 28 29 29 29 29 30 31 32 33 33 33 33 33 34 34 34 35 35 35 35 36 37 38 39 41 42 42 43 44 46 47 48 49 50 51 51 51 51 51 50 50 50
29 29 29 30 29 30 31 32 33 34 34 35 35 34 33 32 33 34 35 36 37 38 39 39 40 41 43 44 46 47 47 48 49 50 51 51 51 51 51 50 49 49 49
30 29 29 29 29 30 31 32 33 33 34 34 34 34 34 34 34 35 36 37 38 40 40 41 41 42 44 45 46 47 48 49 49 50 50 50 49 49 48 48 47 47 48
28 28 28 28 29 30 31 31 31 31 32 32 33 34 33 33 34 35 36 38 39 41 42 41 42 43 45 46 46 47 47 48 48 48 48 47 47 46 45 45 45 45 45
27 28 29 29 30 31 31 31 31 31 31 32 33 33 33 33 34 36 36 37 39 41 42 42 42 43 44 45 46 46 46 46 45 45 45 44 43 42 42 42 42 43 43
28 28 28 28 30 30 30 31 31 31 32 32 32 33 34 35 36 37 37 37 38 40 42 42 41 42 43 44 44 44 44 43 42 41 40 40 39 39 39 39 39 40 40
29 28 28 28 29 29 30 30 31 31 31 31 32 33 35 36 36 37 37 37 38 39 40 40 40 40 41 41 41 41 41 40 38 37 37 37 37 37 37 37 37 37 36
28 27 27 27 27 28 28 29 30 31 32 32 33 33 34 34 34 35 35 36 37 37 38 39 39 39 39 39 38 38 37 37 35 34 34 34 35 35 35 34 33 33 33
27 27 26 27 27 28 28 28 29 30 31 31 31 32 32 33 33 33 34 35 36 36 37 36 36 36 36 36 36 35 34 33 32 32 32 32 32 31 31 31 31 32 33
26 25 25 26 26 27 27 27 28 28 28 30 30 31 31 31 32 32 33 34 34 34 34 34 34 34 33 33 32 31 30 29 30 30 30 29 28 27 27 28 30 30 30
23 23 24 25 26 26 26 27 27 28 29 29 30 30 31 30 31 31 31 32 32 32 32 32 31 30 30 29 28 28 27 27 27 27 26 26 25 25 26 26 27 27 27
23 23 23 24 24 25 25 26 26 26 26 27 27 27 27 28 28 29 29 29 29 29 29 29 28 27 26 26 25 25 25 25 25 24 23 23 22 23 23 24 25 25 25
21 21 22 22 23 23 23 23 24 24 25 25 26 26 26 26 27 27 28 28 28 27 26 25 25 24 24 23 23 23 23 22 22 20 20 20 20 21 21 22 22 23 23
20 20 20 20 20 21 22 22 23 23 24 24 25 24 25 25 25 26 26 25 25 24 24 23 23 22 21 21 20 20 20 20 18 17 17 17 18 19 20 20 20 20 21
18 18 18 19 19 20 20 20 21 21 22 22 23 23 23 24 24 24 24 23 23 22 22 21 21 20 19 19 19 19 18 17 16 16 16 16 16 17 17 18 18 18 19
Wind_Direction
254 251 249 247 249 248 247 249 251 253 254 253 253 255 259 263 266 265 267 271 274 277 279 281 284 286 287 288 288 287 288 288 287 286 286 285 285 283 280 279 280 279 277
255 251 248 246 249 248 248 249 250 252 254 254 254 255 258 262 265 265 267 270 273 275 278 280 282 283 285 285 284 284 284 285 286 287 285 283 284 284 283 281 280 279 279
260 254 249 248 249 250 248 249 250 251 252 253 254 256 258 262 265 267 268 269 271 274 277 279 280 282 283 283 282 282 283 283 285 287 286 285 284 283 282 282 281 280 279
261 256 252 249 250 250 248 249 250 250 251 251 253 256 259 262 264 266 268 269 270 273 275 277 279 281 282 283 284 283 285 285 285 286 287 287 286 284 282 281 281 280 279
262 258 257 253 250 249 249 250 249 252 252 252 253 256 258 260 262 266 269 271 273 273 274 276 279 280 281 283 283 284 285 285 286 286 287 287 287 286 284 283 282 281 280
266 262 259 252 251 250 252 251 251 253 253 254 255 257 259 260 261 266 270 272 274 274 275 277 279 280 281 283 284 284 285 285 286 286 287 286 286 286 285 285 285 284 283
265 264 261 260 256 254 252 252 253 254 255 255 257 259 258 258 261 265 268 271 274 275 276 277 278 281 283 284 285 286 286 286 287 287 288 288 288 287 287 286 285 284 284
269 269 267 261 255 253 252 253 255 256 257 256 257 258 259 259 262 264 268 271 274 276 278 280 281 282 282 284 285 286 287 286 287 288 289 289 289 288 287 287 287 286 285
270 269 266 261 257 255 254 255 257 255 254 255 257 259 260 261 265 267 270 273 274 276 277 279 280 282 284 285 286 287 287 288 288 289 289 289 289 289 288 288 287 287 286
272 268 264 262 257 254 255 255 256 254 253 256 258 259 259 262 266 268 270 272 275 276 278 279 281 284 285 286 287 287 288 289 290 290 290 291 290 289 289 288 288 287 286
272 267 263 261 258 256 254 253 253 254 256 257 257 259 262 264 265 268 269 271 273 275 278 280 282 283 285 287 288 288 289 290 291 291 291 291 291 291 290 289 289 288 287
271 267 263 262 259 257 256 255 257 258 258 258 259 262 263 265 267 269 271 272 273 275 277 279 282 284 286 288 289 289 290 290 291 291 292 292 292 292 291 290 289 288 288
268 265 263 261 259 258 258 258 258 260 260 260 261 261 261 264 267 269 272 273 276 278 279 281 284 286 287 289 290 291 292 292 292 292 292 292 292 293 292 291 290 289 288
267 266 265 263 262 260 260 260 260 261 262 260 260 261 262 266 269 272 275 277 279 280 282 284 286 288 289 290 291 291 292 292 293 293 293 293 293 293 292 291 290 290 289
265 265 265 264 261 260 262 264 261 260 261 260 261 263 266 269 274 277 278 280 281 283 284 285 287 289 290 291 292 292 292 293 294 295 295 295 294 294 294 293 292 291 291
267 270 265 263 263 261 262 263 261 262 263 262 264 267 270 274 277 278 280 282 282 284 286 288 289 290 291 293 293 293 294 295 296 296 296 296 295 294 294 294 294 294 294
267 269 266 266 265 263 264 264 264 263 264 265 268 271 274 277 279 280 281 282 284 286 288 289 291 292 294 294 294 295 296 296 296 297 297 296 296 296 296 296 296 296 295
267 266 266 266 265 266 265 265 265 266 269 270 272 274 277 278 280 281 283 285 287 288 290 291 292 293 294 295 296 297 297 297 297 297 297 297 297 297 297 297 298 298 298
268 267 267 267 268 270 269 268 267 268 269 272 274 276 277 279 282 283 285 287 288 289 290 291 292 294 294 295 296 297 297 297 297 297 298 298 299 299 300 300 300 301 302
266 268 267 267 269 270 270 268 268 270 271 274 276 277 278 282 284 285 286 287 288 289 290 292 292 293 295 295 296 297 297 297 298 298 298 299 300 300 301 303 304 304 305
265 264 266 267 269 270 269 269 271 272 274 276 278 280 283 284 285 286 286 288 289 290 291 292 293 294 295 296 296 297 298 298 299 299 300 300 301 301 303 305 307 308 309
267 269 269 271 274 275 275 276 277 278 279 279 280 282 283 284 285 286 287 288 289 291 292 292 293 294 295 296 297 298 299 300 300 301 301 302 303 305 308 310 311 313 313
271 271 274 276 277 277 277 278 279 280 280 281 282 282 283 284 286 287 289 290 291 292 293 293 294 295 296 296 297 298 299 300 300 302 303 305 307 311 313 315 317 318 319
275 278 280 279 278 278 279 279 279 280 280 281 282 283 284 285 287 288 289 290 292 293 295 295 295 296 296 296 296 297 298 300 301 302 304 307 310 314 318 320 322 324 325
278 279 279 279 280 281 281 280 280 280 281 282 283 284 286 287 288 290 291 292 292 293 293 293 294 294 295 296 297 298 299 300 301 303 305 308 312 316 320 323 325 328 330
281 283 284 283 283 283 282 282 282 283 283 284 285 286 287 289 291 292 293 293 292 292 292 292 292 292 293 295 297 299 299 298 300 304 307 309 312 316 321 325 328 332 335
Height
5855 5857 5858 5858 5860 5862 5863 5864 5866 5867 5869 5870 5871 5872 5872 5873 5873 5875 5875 5875 5875 5875 5875 5875 5875 5875 5874 5874 5874 5874 5873 5873 5873 5872 5872 5872 5871 5871 5871 5871 5870 5870 5870
5850 5851 5852 5854 5855 5857 5858 5859 5861 5863 5865 5866 5867 5868 5869 5869 5870 5870 5871 5871 5871 5871 5872 5872 5871 5871 5871 5870 5870 5870 5869 5869 5868 5868 5867 5867 5867 5866 5866 5865 5865 5865 5864
5845 5846 5848 5849 5850 5852 5853 5854 5856 5859 5860 5861 5863 5863 5864 5865 5865 5866 5867 5868 5867 5867 5867 5867 5867 5867 5867 5866 5866 5865 5865 5864 5864 5863 5862 5862 5861 5860 5860 5859 5859 5858 5858
5840 5841 5842 5843 5845 5847 5848 5849 5851 5853 5855 5856 5858 5859 5860 5861 5861 5860 5861 5863 5863 5863 5863 5863 5863 5863 5862 5861 5861 5860 5860 5859 5858 5858 5857 5856 5855 5854 5853 5853 5852 5851 5851
5834 5835 5836 5838 5840 5841 5843 5845 5847 5848 5850 5851 5853 5853 5855 5856 5856 5856 5856 5857 5857 5858 5857 5857 5857 5857 5857 5856 5855 5854 5854 5853 5852 5851 5850 5849 5848 5847 5846 5845 5844 5843 5842
5828 5829 5830 5831 5834 5836 5838 5839 5841 5843 5844 5846 5847 5848 5849 5850 5851 5851 5851 5851 5851 5852 5852 5851 5851 5850 5850 5850 5849 5848 5847 5846 5845 5844 5843 5842 5840 5839 5838 5836 5835 5834 5833
5822 5824 5825 5826 5828 5830 5832 5834 5835 5837 5838 5840 5841 5842 5843 5844 5845 5845 5845 5845 5845 5845 5845 5845 5844 5843 5843 5842 5842 5841 5840 5839 5838 5836 5835 5833 5832 5830 5829 5827 5826 5824 5823
5817 5818 5819 5820 5822 5824 5825 5827 5829 5831 5832 5833 5835 5836 5837 5838 5838 5839 5839 5839 5839 5839 5839 5837 5837 5836 5836 5836 5834 5833 5832 5830 5829 5828 5826 5824 5823 5821 5819 5817 5815 5813 5812
5812 5812 5813 5814 5815 5817 5819 5821 5823 5824 5826 5828 5829 5830 5831 5832 5832 5832 5832 5832 5832 5832 5831 5830 5829 5828 5828 5828 5827 5825 5823 5821 5820 5818 5817 5815 5813 5811 5808 5806 5804 5802 5800
5805 5806 5808 5808 5810 5811 5813 5815 5816 5817 5819 5821 5822 5823 5824 5825 5825 5825 5826 5825 5825 5824 5824 5823 5822 5820 5819 5819 5818 5816 5814 5812 5810 5809 5806 5804 5802 5799 5797 5795 5792 5789 5787
5799 5800 5801 5802 5803 5804 5806 5807 5809 5811 5812 5813 5814 5816 5816 5817 5817 5817 5817 5818 5817 5817 5816 5814 5814 5813 5811 5810 5809 5806 5805 5802 5800 5798 5795 5793 5790 5788 5785 5782 5779 5776 5774
5792 5793 5794 5795 5796 5797 5799 5800 5802 5803 5805 5806 5807 5808 5809 5809 5809 5809 5809 5809 5809 5808 5807 5806 5805 5804 5802 5801 5799 5797 5794 5792 5789 5786 5783 5781 5778 5775 5772 5769 5766 5763 5760
5786 5786 5787 5788 5789 5791 5792 5794 5795 5796 5797 5799 5800 5801 5802 5802 5802 5801 5801 5800 5800 5799 5798 5798 5796 5794 5792 5791 5788 5786 5783 5780 5778 5775 5772 5769 5765 5762 5759 5756 5753 5750 5746
5779 5779 5780 5781 5782 5784 5785 5786 5787 5788 5789 5791 5792 5793 5794 5794 5794 5793 5793 5792 5791 5790 5789 5789 5787 5785 5782 5780 5778 5775 5772 5769 5766 5763 5760 5756 5753 5750 5746 5743 5740 5736 5733
5772 5772 5773 5774 5775 5776 5778 5779 5780 5781 5782 5783 5784 5785 5786 5786 5786 5785 5785 5783 5782 5780 5780 5780 5779 5775 5772 5770 5767 5764 5761 5758 5755 5751 5748 5744 5741 5738 5734 5731 5728 5724 5721
5765 5766 5767 5767 5768 5769 5770 5772 5773 5774 5775 5776 5776 5777 5778 5778 5778 5777 5776 5775 5773 5771 5770 5770 5768 5765 5762 5759 5756 5753 5750 5747 5743 5740 5737 5733 5730 5727 5723 5720 5716 5713 5709
5759 5759 5760 5761 5761 5762 5763 5764 5766 5767 5767 5768 5768 5769 5769 5769 5769 5768 5767 5766 5764 5762 5760 5759 5757 5754 5751 5748 5745 5742 5739 5736 5733 5729 5726 5723 5720 5716 5713 5710 5706 5702 5698
5752 5753 5753 5754 5754 5755 5756 5757 5758 5759 5759 5760 5761 5761 5761 5760 5760 5759 5758 5756 5755 5752 5750 5748 5747 5744 5741 5738 5735 5732 5729 5726 5723 5720 5717 5713 5710 5707 5704 5700 5696 5692 5688
5745 5745 5746 5747 5747 5748 5749 5750 5750 5751 5752 5752 5753 5753 5752 5752 5751 5750 5749 5748 5746 5743 5741 5739 5737 5734 5732 5729 5726 5723 5720 5717 5714 5711 5708 5705 5702 5698 5695 5691 5687 5683 5679
5738 5739 5739 5740 5741 5741 5742 5743 5743 5744 5744 5744 5745 5744 5744 5743 5743 5742 5740 5739 5736 5734 5732 5730 5728 5725 5723 5720 5717 5714 5711 5708 5706 5703 5701 5698 5694 5691 5687 5683 5680 5676 5672
5731 5732 5732 5733 5734 5735 5735 5736 5736 5736 5736 5737 5737 5736 5736 5735 5734 5733 5731 5729 5727 5725 5723 5721 5719 5716 5714 5711 5708 5706 5703 5700 5698 5695 5693 5690 5687 5684 5680 5677 5673 5669 5664
5725 5726 5726 5727 5728 5728 5728 5728 5729 5729 5729 5729 5728 5728 5728 5727 5726 5724 5723 5721 5719 5717 5715 5713 5710 5708 5706 5703 5700 5698 5696 5694 5691 5689 5686 5684 5681 5678 5675 5671 5667 5663 5658
5719 5720 5720 5721 5721 5721 5721 5722 5722 5722 5722 5721 5721 5720 5720 5719 5717 5716 5714 5713 5711 5709 5707 5705 5703 5700 5698 5696 5694 5692 5689 5687 5685 5682 5680 5678 5675 5672 5669 5665 5661 5657 5653
5714 5714 5714 5715 5715 5715 5715 5715 5715 5715 5714 5714 5714 5713 5712 5710 5709 5708 5707 5705 5703 5701 5700 5697 5696 5694 5692 5690 5688 5686 5684 5682 5679 5677 5675 5673 5670 5667 5664 5661 5657 5653 5649
5708 5709 5709 5709 5709 5709 5709 5709 5708 5708 5708 5707 5706 5705 5704 5703 5702 5701 5699 5698 5696 5694 5693 5691 5689 5688 5686 5684 5682 5680 5678 5676 5675 5673 5671 5669 5666 5663 5660 5657 5654 5650 5646
5704 5704 5704 5704 5704 5703 5703 5703 5702 5702 5701 5700 5700 5699 5698 5697 5695 5694 5693 5691 5690 5688 5687 5685 5684 5682 5680 5678 5677 5675 5673 5672 5670 5669 5667 5665 5663 5660 5657 5654 5651 5647 5643